,,Stat6,,Stat2,,Stat8,,Stat9,,Stat10,,Wind1,,Wind1,
time,status,PA1M_AVG,status,PR1M_SUM,status,RH1M_AVG,status,SR1M_AVG,status,TA1M_AVG,status,W1dAve1m,status,W1sAve1m,
2005-06-02, 00:00:00,VALID,916.528,VALID,0,VALID,100,VALID,-0.0169808,VALID,20.0527,VALID,136,VALID,0.701563,
2005-06-02, 00:01:00,VALID,916.526,VALID,0,VALID,100,VALID,-0.0169808,VALID,20.0527,VALID,120,VALID,1.04297,
2005-06-02, 00:02:00,VALID,916.536,VALID,0,VALID,100,VALID,0,VALID,20.0559,VALID,129,VALID,0.905231,
2005-06-02, 00:03:00,VALID,916.539,VALID,0,VALID,100,VALID,0,VALID,20.0629,VALID,121,VALID,0.86849,
2005-06-02, 00:04:00,VALID,916.519,VALID,0,VALID,100,VALID,-0.0169808,VALID,20.0626,VALID,118,VALID,1.02646,
2005-06-02, 00:05:00,VALID,916.49,VALID,0,VALID,100,VALID,-0.0169808,VALID,20.0527,VALID,133,VALID,1.11997,
2005-06-02, 00:06:00,VALID,916.466,VALID,0,VALID,100,VALID,0,VALID,20.0621,VALID,113,VALID,0.838199,
2005-06-02, 00:07:00,VALID,916.444,VALID,0,VALID,100,VALID,0,VALID,20.0624,VALID,110,VALID,1.18136,
2005-06-02, 00:08:00,VALID,916.423,VALID,0,VALID,100,VALID,0,VALID,20.0495,VALID,96,VALID,0.789621,
2005-06-02, 00:09:00,VALID,916.423,VALID,0,VALID,100,VALID,0.0169808,VALID,20.0234,VALID,89,VALID,0.77846,
2005-06-02, 00:10:00,VALID,916.405,VALID,0,VALID,100,VALID,0,VALID,20.0072,VALID,102,VALID,0.414063,
2005-06-02, 00:11:00,VALID,916.417,VALID,0,VALID,100,VALID,0,VALID,20.0008,VALID,102,VALID,0.63681,
2005-06-02, 00:12:00,VALID,916.415,VALID,0,VALID,100,VALID,0.0169808,VALID,19.9782,VALID,107,VALID,0.944293,
2005-06-02, 00:13:00,VALID,916.4,VALID,0,VALID,100,VALID,0,VALID,19.9591,VALID,110,VALID,0.943598,
2005-06-02, 00:14:00,VALID,916.408,VALID,0,VALID,100,VALID,0,VALID,19.9427,VALID,115,VALID,1.11737,
2005-06-02, 00:15:00,VALID,916.387,VALID,0,VALID,100,VALID,0.0169808,VALID,19.9365,VALID,116,VALID,1.2115,
2005-06-02, 00:16:00,VALID,916.37,VALID,0,VALID,100,VALID,0,VALID,19.9335,VALID,114,VALID,0.79306,
2005-06-02, 00:17:00,VALID,916.364,VALID,0,VALID,100,VALID,0,VALID,19.9007,VALID,114,VALID,0.64027,
2005-06-02, 00:18:00,VALID,916.357,VALID,0,VALID,100,VALID,0.0169808,VALID,19.891,VALID,111,VALID,0.633008,
2005-06-02, 00:19:00,VALID,916.352,VALID,0,VALID,100,VALID,0,VALID,19.8816,VALID,109,VALID,0.833807,
2005-06-02, 00:20:00,VALID,916.35,VALID,0,VALID,100,VALID,0,VALID,19.8783,VALID,123,VALID,0.870722,
2005-06-02, 00:21:00,VALID,916.372,VALID,0,VALID,100,VALID,0,VALID,19.8781,VALID,114,VALID,0.659801,
2005-06-02, 00:22:00,VALID,916.377,VALID,0,VALID,100,VALID,0,VALID,19.8786,VALID,122,VALID,0.842052,
2005-06-02, 00:23:00,VALID,916.383,VALID,0,VALID,100,VALID,0,VALID,19.8781,VALID,117,VALID,0.784226,
2005-06-02, 00:24:00,VALID,916.394,VALID,0,VALID,100,VALID,0,VALID,19.8942,VALID,134,VALID,1.00854,
2005-06-02, 00:25:00,VALID,916.394,VALID,0,VALID,100,VALID,0,VALID,19.9208,VALID,128,VALID,0.886628,
2005-06-02, 00:26:00,VALID,916.387,VALID,0,VALID,100,VALID,0,VALID,19.927,VALID,138,VALID,1.21566,
2005-06-02, 00:27:00,VALID,916.384,VALID,0,VALID,100,VALID,0.0169808,VALID,19.9332,VALID,117,VALID,0.82976,
2005-06-02, 00:28:00,VALID,916.366,VALID,0,VALID,100,VALID,0,VALID,19.9136,VALID,118,VALID,1.1408,
2005-06-02, 00:29:00,VALID,916.352,VALID,0,VALID,100,VALID,0,VALID,19.9079,VALID,113,VALID,1.22363,
2005-06-02, 00:30:00,VALID,916.344,VALID,0,VALID,100,VALID,0,VALID,19.8783,VALID,92,VALID,0.847569,
2005-06-02, 00:31:00,VALID,916.316,VALID,0,VALID,100,VALID,-0.0169808,VALID,19.8684,VALID,110,VALID,1.58861,
2005-06-02, 00:32:00,VALID,916.321,VALID,0,VALID,100,VALID,0,VALID,19.8458,VALID,120,VALID,1.09947,
2005-06-02, 00:33:00,VALID,916.308,VALID,0,VALID,100,VALID,0,VALID,19.8368,VALID,121,VALID,0.998285,
2005-06-02, 00:34:00,VALID,916.297,VALID,0,VALID,100,VALID,0,VALID,19.8172,VALID,110,VALID,1.07626,
2005-06-02, 00:35:00,VALID,916.291,VALID,0,VALID,100,VALID,-0.0509425,VALID,19.7847,VALID,111,VALID,0.786776,
2005-06-02, 00:36:00,VALID,916.269,VALID,0,VALID,100,VALID,0.0169808,VALID,19.7693,VALID,127,VALID,1.12386,
2005-06-02, 00:37:00,VALID,916.254,VALID,0,VALID,100,VALID,0.0169808,VALID,19.7363,VALID,141,VALID,1.22947,
2005-06-02, 00:38:00,VALID,916.226,VALID,0,VALID,100,VALID,0.0169808,VALID,19.743,VALID,123,VALID,0.95476,
2005-06-02, 00:39:00,VALID,916.215,VALID,0,VALID,100,VALID,0.0169808,VALID,19.7524,VALID,128,VALID,1.40098,
2005-06-02, 00:40:00,VALID,916.224,VALID,0,VALID,100,VALID,0.0169808,VALID,19.7849,VALID,127,VALID,1.29794,
2005-06-02, 00:41:00,VALID,916.223,VALID,0,VALID,100,VALID,0,VALID,19.8108,VALID,131,VALID,0.735795,
2005-06-02, 00:42:00,VALID,916.23,VALID,0,VALID,100,VALID,0.0169808,VALID,19.8202,VALID,137,VALID,0.603468,
2005-06-02, 00:43:00,VALID,916.238,VALID,0,VALID,100,VALID,-0.0169808,VALID,19.8137,VALID,114,VALID,0.954241,
2005-06-02, 00:44:00,VALID,916.231,VALID,0,VALID,100,VALID,0,VALID,19.8329,VALID,132,VALID,1.01705,
2005-06-02, 00:45:00,VALID,916.226,VALID,0,VALID,100,VALID,0.0169808,VALID,19.8339,VALID,108,VALID,1.08066,
2005-06-02, 00:46:00,VALID,916.223,VALID,0,VALID,100,VALID,0.0169808,VALID,19.8336,VALID,114,VALID,1.05025,
2005-06-02, 00:47:00,VALID,916.204,VALID,0,VALID,100,VALID,0,VALID,19.8244,VALID,105,VALID,0.777716,
2005-06-02, 00:48:00,VALID,916.198,VALID,0,VALID,100,VALID,0.0339617,VALID,19.7946,VALID,95,VALID,0.964311,
2005-06-02, 00:49:00,VALID,916.197,VALID,0,VALID,100,VALID,0.0509425,VALID,19.7643,VALID,106,VALID,0.824695,
2005-06-02, 00:50:00,VALID,916.206,VALID,0,VALID,100,VALID,0.0509425,VALID,19.7626,VALID,99,VALID,0.683694,
2005-06-02, 00:51:00,VALID,916.208,VALID,0,VALID,100,VALID,0.0169808,VALID,19.7524,VALID,99,VALID,0.963542,
2005-06-02, 00:52:00,VALID,916.218,VALID,0,VALID,100,VALID,0.0169808,VALID,19.7427,VALID,101,VALID,0.767531,
2005-06-02, 00:53:00,VALID,916.22,VALID,0,VALID,100,VALID,0.0169808,VALID,19.73,VALID,84,VALID,0.672053,
2005-06-02, 00:54:00,VALID,916.222,VALID,0,VALID,100,VALID,0.0169808,VALID,19.7204,VALID,90,VALID,0.538881,
2005-06-02, 00:55:00,VALID,916.227,VALID,0,VALID,100,VALID,0,VALID,19.6978,VALID,94,VALID,0.716211,
2005-06-02, 00:56:00,VALID,916.212,VALID,0,VALID,100,VALID,0,VALID,19.6878,VALID,96,VALID,0.59718,
2005-06-02, 00:57:00,VALID,916.211,VALID,0,VALID,100,VALID,0.0169808,VALID,19.6848,VALID,92,VALID,0.546875,
2005-06-02, 00:58:00,VALID,916.213,VALID,0,VALID,100,VALID,0.0509425,VALID,19.6583,VALID,92,VALID,0.373698,
2005-06-02, 00:59:00,VALID,916.21,VALID,0,VALID,100,VALID,0,VALID,19.6458,VALID,95,VALID,0.523624,
2005-06-02, 01:00:00,VALID,916.208,VALID,0,VALID,100,VALID,0.0339617,VALID,19.6593,VALID,109,VALID,0.633194,
2005-06-02, 01:01:00,VALID,916.197,VALID,0,VALID,100,VALID,0.0169808,VALID,19.6528,VALID,109,VALID,0.630149,
2005-06-02, 01:02:00,VALID,916.182,VALID,0,VALID,100,VALID,0.0169808,VALID,19.662,VALID,109,VALID,0.663881,
2005-06-02, 01:03:00,VALID,916.177,VALID,0,VALID,100,VALID,0.0169808,VALID,19.6719,VALID,109,VALID,0.579215,
2005-06-02, 01:04:00,VALID,916.178,VALID,0,VALID,100,VALID,0.0169808,VALID,19.6555,VALID,109,VALID,0.120236,
2005-06-02, 01:05:00,VALID,916.161,VALID,0,VALID,100,VALID,0,VALID,19.6525,VALID,109,VALID,0.255766,
2005-06-02, 01:06:00,VALID,916.152,VALID,0,VALID,100,VALID,0.0339617,VALID,19.6431,VALID,109,VALID,0.32919,
2005-06-02, 01:07:00,VALID,916.142,VALID,0,VALID,100,VALID,0,VALID,19.5947,VALID,94,VALID,0.563889,
2005-06-02, 01:08:00,VALID,916.128,VALID,0,VALID,100,VALID,0.0169808,VALID,19.5008,VALID,73,VALID,0.47061,
2005-06-02, 01:09:00,VALID,916.106,VALID,0,VALID,100,VALID,0.0339617,VALID,19.4618,VALID,71,VALID,0.523801,
2005-06-02, 01:10:00,VALID,916.102,VALID,0,VALID,100,VALID,0.0339617,VALID,19.4039,VALID,46,VALID,0.707961,
2005-06-02, 01:11:00,VALID,916.095,VALID,0,VALID,100,VALID,0.0509425,VALID,19.3232,VALID,46,VALID,0.650036,
2005-06-02, 01:12:00,VALID,916.068,VALID,0,VALID,100,VALID,0.0509425,VALID,19.2974,VALID,46,VALID,0.635861,
2005-06-02, 01:13:00,VALID,916.078,VALID,0,VALID,100,VALID,0.0339617,VALID,19.2845,VALID,41,VALID,0.654652,
2005-06-02, 01:14:00,VALID,916.074,VALID,0,VALID,100,VALID,0.0509425,VALID,19.278,VALID,31,VALID,0.58085,
2005-06-02, 01:15:00,VALID,916.077,VALID,0,VALID,100,VALID,0.0169808,VALID,19.2619,VALID,21,VALID,0.455966,
2005-06-02, 01:16:00,VALID,916.058,VALID,0,VALID,100,VALID,0.0169808,VALID,19.2527,VALID,21,VALID,0.807776,
2005-06-02, 01:17:00,VALID,916.053,VALID,0,VALID,100,VALID,0.0339617,VALID,19.1973,VALID,21,VALID,0.701079,
2005-06-02, 01:18:00,VALID,916.034,VALID,0,VALID,100,VALID,0.0169808,VALID,19.1653,VALID,21,VALID,0.85174,
2005-06-02, 01:19:00,VALID,916.02,VALID,0,VALID,100,VALID,0.0339617,VALID,19.1486,VALID,21,VALID,0.945668,
2005-06-02, 01:20:00,VALID,916.006,VALID,0,VALID,100,VALID,0.0339617,VALID,19.1288,VALID,23,VALID,0.958147,
2005-06-02, 01:21:00,VALID,916,VALID,0,VALID,100,VALID,0.0339617,VALID,19.1228,VALID,24,VALID,0.650152,
2005-06-02, 01:22:00,VALID,915.992,VALID,0,VALID,100,VALID,-0.0169808,VALID,19.1628,VALID,26,VALID,0.577947,
2005-06-02, 01:23:00,VALID,915.978,VALID,0,VALID,100,VALID,-0.101885,VALID,19.199,VALID,36,VALID,0.537997,
2005-06-02, 01:24:00,VALID,915.984,VALID,0,VALID,100,VALID,-0.0509425,VALID,19.2154,VALID,36,VALID,0.370236,
2005-06-02, 01:25:00,VALID,915.986,VALID,0,VALID,100,VALID,-0.101885,VALID,19.1925,VALID,36,VALID,0.435268,
2005-06-02, 01:26:00,VALID,915.974,VALID,0,VALID,100,VALID,-0.0679233,VALID,19.1605,VALID,37,VALID,0.560976,
2005-06-02, 01:27:00,VALID,915.968,VALID,0,VALID,100,VALID,-0.0849042,VALID,19.1051,VALID,44,VALID,0.657439,
2005-06-02, 01:28:00,VALID,915.948,VALID,0,VALID,100,VALID,-0.0679233,VALID,19.0661,VALID,65,VALID,0.751272,
2005-06-02, 01:29:00,VALID,915.935,VALID,0,VALID,100,VALID,0.0679233,VALID,19.0461,VALID,75,VALID,0.941992,
2005-06-02, 01:30:00,VALID,915.926,VALID,0,VALID,100,VALID,0.0679233,VALID,19.0712,VALID,75,VALID,0.865885,
2005-06-02, 01:31:00,VALID,915.896,VALID,0,VALID,100,VALID,0.0169808,VALID,19.0553,VALID,75,VALID,0.783668,
2005-06-02, 01:32:00,VALID,915.892,VALID,0,VALID,100,VALID,0.0339617,VALID,19.0453,VALID,85,VALID,0.744618,
2005-06-02, 01:33:00,VALID,915.879,VALID,0,VALID,100,VALID,0.0509425,VALID,19.0389,VALID,91,VALID,0.781977,
2005-06-02, 01:34:00,VALID,915.877,VALID,0,VALID,100,VALID,0,VALID,19.0324,VALID,101,VALID,0.522892,
2005-06-02, 01:35:00,VALID,915.891,VALID,0,VALID,100,VALID,0,VALID,19.0401,VALID,126,VALID,0.558771,
2005-06-02, 01:36:00,VALID,915.901,VALID,0,VALID,100,VALID,0,VALID,19.0597,VALID,126,VALID,0.81199,
2005-06-02, 01:37:00,VALID,915.914,VALID,0,VALID,100,VALID,0,VALID,19.1071,VALID,122,VALID,0.711509,
2005-06-02, 01:38:00,VALID,915.92,VALID,0,VALID,100,VALID,0.0169808,VALID,19.172,VALID,129,VALID,0.888421,
2005-06-02, 01:39:00,VALID,915.922,VALID,0,VALID,100,VALID,0,VALID,19.1946,VALID,127,VALID,0.650213,
2005-06-02, 01:40:00,VALID,915.914,VALID,0,VALID,100,VALID,0.0169808,VALID,19.2209,VALID,137,VALID,0.963034,
2005-06-02, 01:41:00,VALID,915.902,VALID,0,VALID,100,VALID,0,VALID,19.2594,VALID,134,VALID,0.920455,
2005-06-02, 01:42:00,VALID,915.91,VALID,0,VALID,100,VALID,0.0169808,VALID,19.2914,VALID,129,VALID,0.727679,
2005-06-02, 01:43:00,VALID,915.912,VALID,0,VALID,100,VALID,0.0509425,VALID,19.3235,VALID,154,VALID,0.655692,
2005-06-02, 01:44:00,VALID,915.927,VALID,0,VALID,100,VALID,0.0169808,VALID,19.359,VALID,142,VALID,0.934524,
2005-06-02, 01:45:00,VALID,915.93,VALID,0,VALID,100,VALID,0.0169808,VALID,19.4047,VALID,138,VALID,0.586301,
2005-06-02, 01:46:00,VALID,915.954,VALID,0,VALID,100,VALID,0.0169808,VALID,19.4367,VALID,112,VALID,0.479403,
2005-06-02, 01:47:00,VALID,915.963,VALID,0,VALID,100,VALID,0,VALID,19.4397,VALID,115,VALID,0.513021,
2005-06-02, 01:48:00,VALID,915.966,VALID,0,VALID,100,VALID,0.0169808,VALID,19.4432,VALID,115,VALID,0.802083,
2005-06-02, 01:49:00,VALID,915.982,VALID,0,VALID,100,VALID,0.0509425,VALID,19.4563,VALID,105,VALID,0.868459,
2005-06-02, 01:50:00,VALID,915.983,VALID,0,VALID,100,VALID,0.0339617,VALID,19.4362,VALID,105,VALID,0.476372,
2005-06-02, 01:51:00,VALID,916.005,VALID,0,VALID,100,VALID,0,VALID,19.4203,VALID,102,VALID,0.370584,
2005-06-02, 01:52:00,VALID,916.01,VALID,0,VALID,100,VALID,0,VALID,19.392,VALID,88,VALID,0.653392,
2005-06-02, 01:53:00,VALID,916.008,VALID,0,VALID,100,VALID,0.0169808,VALID,19.3465,VALID,88,VALID,0.688072,
2005-06-02, 01:54:00,VALID,916.009,VALID,0,VALID,100,VALID,0.0169808,VALID,19.3274,VALID,101,VALID,0.821671,
2005-06-02, 01:55:00,VALID,916.01,VALID,0,VALID,100,VALID,0,VALID,19.2882,VALID,108,VALID,0.996271,
2005-06-02, 01:56:00,VALID,916.001,VALID,0,VALID,100,VALID,0,VALID,19.2822,VALID,111,VALID,0.867374,
2005-06-02, 01:57:00,VALID,916.003,VALID,0,VALID,100,VALID,0.0339617,VALID,19.2594,VALID,99,VALID,0.815625,
2005-06-02, 01:58:00,VALID,915.985,VALID,0,VALID,100,VALID,0,VALID,19.2529,VALID,107,VALID,0.828906,
2005-06-02, 01:59:00,VALID,915.978,VALID,0,VALID,100,VALID,0.0169808,VALID,19.243,VALID,103,VALID,0.801054,
2005-06-02, 02:00:00,VALID,915.957,VALID,0,VALID,100,VALID,-0.0169808,VALID,19.2462,VALID,98,VALID,0.514695,
2005-06-02, 02:01:00,VALID,915.935,VALID,0,VALID,100,VALID,0,VALID,19.2363,VALID,101,VALID,0.693945,
2005-06-02, 02:02:00,VALID,915.919,VALID,0,VALID,100,VALID,0.0169808,VALID,19.2331,VALID,101,VALID,0.328488,
2005-06-02, 02:03:00,VALID,915.904,VALID,0,VALID,100,VALID,-0.0169808,VALID,19.234,VALID,101,VALID,0.751488,
2005-06-02, 02:04:00,VALID,915.904,VALID,0,VALID,100,VALID,0,VALID,19.2209,VALID,101,VALID,0.593941,
2005-06-02, 02:05:00,VALID,915.891,VALID,0,VALID,100,VALID,0,VALID,19.2013,VALID,101,VALID,0.764737,
2005-06-02, 02:06:00,VALID,915.876,VALID,0,VALID,100,VALID,0,VALID,19.1851,VALID,103,VALID,0.737179,
2005-06-02, 02:07:00,VALID,915.882,VALID,0,VALID,100,VALID,0,VALID,19.169,VALID,111,VALID,0.704823,
2005-06-02, 02:08:00,VALID,915.894,VALID,0,VALID,100,VALID,0,VALID,19.1692,VALID,116,VALID,0.491992,
2005-06-02, 02:09:00,VALID,915.885,VALID,0,VALID,100,VALID,0,VALID,19.1695,VALID,117,VALID,0.765625,
2005-06-02, 02:10:00,VALID,915.863,VALID,0,VALID,100,VALID,0,VALID,19.1657,VALID,120,VALID,0.555469,
2005-06-02, 02:11:00,VALID,915.858,VALID,0,VALID,100,VALID,0,VALID,19.1856,VALID,125,VALID,0.880087,
2005-06-02, 02:12:00,VALID,915.858,VALID,0,VALID,100,VALID,0,VALID,19.1953,VALID,125,VALID,0.721294,
2005-06-02, 02:13:00,VALID,915.847,VALID,0,VALID,100,VALID,0.0169808,VALID,19.1985,VALID,125,VALID,0.633539,
2005-06-02, 02:14:00,VALID,915.839,VALID,0,VALID,100,VALID,0,VALID,19.205,VALID,125,VALID,0.40346,
2005-06-02, 02:15:00,VALID,915.85,VALID,0,VALID,100,VALID,0,VALID,19.1988,VALID,125,VALID,0.304497,
2005-06-02, 02:16:00,VALID,915.843,VALID,0,VALID,100,VALID,0.0169808,VALID,19.1886,VALID,125,VALID,0.306402,
2005-06-02, 02:17:00,VALID,915.838,VALID,0,VALID,100,VALID,0.0169808,VALID,19.1757,VALID,125,VALID,0.264323,
2005-06-02, 02:18:00,VALID,915.83,VALID,0,VALID,100,VALID,-0.0169808,VALID,19.1593,VALID,125,VALID,0.554332,
2005-06-02, 02:19:00,VALID,915.82,VALID,0,VALID,100,VALID,0,VALID,19.1561,VALID,125,VALID,0.435902,
2005-06-02, 02:20:00,VALID,915.828,VALID,0,VALID,100,VALID,0.0169808,VALID,19.1561,VALID,125,VALID,0.324132,
2005-06-02, 02:21:00,VALID,915.804,VALID,0,VALID,100,VALID,0,VALID,19.1531,VALID,125,VALID,0.302202,
2005-06-02, 02:22:00,VALID,915.798,VALID,0,VALID,100,VALID,0.0169808,VALID,19.1466,VALID,125,VALID,0.292361,
2005-06-02, 02:23:00,VALID,915.786,VALID,0,VALID,100,VALID,0,VALID,19.1461,VALID,125,VALID,0.502232,
2005-06-02, 02:24:00,VALID,915.782,VALID,0,VALID,100,VALID,0,VALID,19.1657,VALID,125,VALID,0.644345,
2005-06-02, 02:25:00,VALID,915.792,VALID,0,VALID,100,VALID,0,VALID,19.1819,VALID,125,VALID,0.387847,
2005-06-02, 02:26:00,VALID,915.788,VALID,0,VALID,100,VALID,0,VALID,19.1754,VALID,123,VALID,0.558984,
2005-06-02, 02:27:00,VALID,915.792,VALID,0,VALID,100,VALID,0,VALID,19.1757,VALID,115,VALID,0.685192,
2005-06-02, 02:28:00,VALID,915.804,VALID,0,VALID,100,VALID,0,VALID,19.1501,VALID,107,VALID,0.512251,
2005-06-02, 02:29:00,VALID,915.819,VALID,0,VALID,100,VALID,0,VALID,19.0987,VALID,107,VALID,0.482013,
2005-06-02, 02:30:00,VALID,915.827,VALID,0,VALID,100,VALID,-0.0169808,VALID,19.0565,VALID,107,VALID,0.397892,
2005-06-02, 02:31:00,VALID,915.845,VALID,0,VALID,100,VALID,0,VALID,19.0364,VALID,107,VALID,0.153646,
2005-06-02, 02:32:00,VALID,915.859,VALID,0,VALID,100,VALID,0,VALID,19.0468,VALID,107,VALID,0.263207,
2005-06-02, 02:33:00,VALID,915.871,VALID,0,VALID,100,VALID,0,VALID,19.0306,VALID,107,VALID,0.250182,
2005-06-02, 02:34:00,VALID,915.869,VALID,0,VALID,100,VALID,0,VALID,19.0048,VALID,104,VALID,0.37282,
2005-06-02, 02:35:00,VALID,915.869,VALID,0,VALID,100,VALID,0,VALID,19.0078,VALID,78,VALID,0.48738,
2005-06-02, 02:36:00,VALID,915.857,VALID,0,VALID,100,VALID,0,VALID,19.0182,VALID,62,VALID,0.306868,
2005-06-02, 02:37:00,VALID,915.857,VALID,0,VALID,100,VALID,0,VALID,18.9854,VALID,62,VALID,0.356326,
2005-06-02, 02:38:00,VALID,915.824,VALID,0,VALID,100,VALID,0.0169808,VALID,18.9462,VALID,62,VALID,0.523438,
2005-06-02, 02:39:00,VALID,915.809,VALID,0,VALID,100,VALID,0,VALID,18.9268,VALID,62,VALID,0.549609,
2005-06-02, 02:40:00,VALID,915.79,VALID,0,VALID,100,VALID,0,VALID,18.9017,VALID,62,VALID,0.53811,
2005-06-02, 02:41:00,VALID,915.803,VALID,0,VALID,100,VALID,-0.0169808,VALID,18.8657,VALID,63,VALID,0.596475,
2005-06-02, 02:42:00,VALID,915.804,VALID,0,VALID,100,VALID,-0.0169808,VALID,18.8434,VALID,63,VALID,0.560826,
2005-06-02, 02:43:00,VALID,915.809,VALID,0,VALID,100,VALID,0,VALID,18.8208,VALID,63,VALID,0.596946,
2005-06-02, 02:44:00,VALID,915.813,VALID,0,VALID,100,VALID,-0.0339617,VALID,18.7855,VALID,66,VALID,0.740699,
2005-06-02, 02:45:00,VALID,915.812,VALID,0,VALID,100,VALID,0,VALID,18.7629,VALID,80,VALID,0.828835,
2005-06-02, 02:46:00,VALID,915.816,VALID,0,VALID,100,VALID,-0.0339617,VALID,18.7371,VALID,83,VALID,1.12373,
2005-06-02, 02:47:00,VALID,915.813,VALID,0,VALID,100,VALID,0,VALID,18.7108,VALID,86,VALID,0.962936,
2005-06-02, 02:48:00,VALID,915.82,VALID,0,VALID,100,VALID,-0.0169808,VALID,18.7048,VALID,89,VALID,0.988459,
2005-06-02, 02:49:00,VALID,915.825,VALID,0,VALID,100,VALID,-0.0169808,VALID,18.708,VALID,89,VALID,0.841518,
2005-06-02, 02:50:00,VALID,915.825,VALID,0,VALID,100,VALID,-0.0169808,VALID,18.6981,VALID,88,VALID,0.607701,
2005-06-02, 02:51:00,VALID,915.815,VALID,0,VALID,100,VALID,0,VALID,18.6983,VALID,88,VALID,0.48947,
2005-06-02, 02:52:00,VALID,915.814,VALID,0,VALID,100,VALID,-0.0509425,VALID,18.6765,VALID,88,VALID,0.648615,
2005-06-02, 02:53:00,VALID,915.801,VALID,0,VALID,100,VALID,-0.101885,VALID,18.6838,VALID,88,VALID,0.805382,
2005-06-02, 02:54:00,VALID,915.809,VALID,0,VALID,100,VALID,-0.152827,VALID,18.7157,VALID,88,VALID,0.72061,
2005-06-02, 02:55:00,VALID,915.805,VALID,0,VALID,100,VALID,-0.101885,VALID,18.7422,VALID,88,VALID,0.692336,
2005-06-02, 02:56:00,VALID,915.802,VALID,0,VALID,100,VALID,-0.101885,VALID,18.7226,VALID,88,VALID,0.662946,
2005-06-02, 02:57:00,VALID,915.793,VALID,0,VALID,100,VALID,-0.0849042,VALID,18.7064,VALID,88,VALID,0.637576,
2005-06-02, 02:58:00,VALID,915.784,VALID,0,VALID,100,VALID,-0.101885,VALID,18.6739,VALID,97,VALID,0.871595,
2005-06-02, 02:59:00,VALID,915.776,VALID,0,VALID,100,VALID,-0.101885,VALID,18.6188,VALID,108,VALID,1.0625,
2005-06-02, 03:00:00,VALID,915.784,VALID,0,VALID,100,VALID,-0.101885,VALID,18.6223,VALID,103,VALID,1.00521,
2005-06-02, 03:01:00,VALID,915.767,VALID,0,VALID,100,VALID,-0.118866,VALID,18.6386,VALID,111,VALID,1.10615,
2005-06-02, 03:02:00,VALID,915.763,VALID,0,VALID,100,VALID,-0.101885,VALID,18.6933,VALID,110,VALID,0.825945,
2005-06-02, 03:03:00,VALID,915.769,VALID,0,VALID,100,VALID,-0.101885,VALID,18.7454,VALID,110,VALID,0.685268,
2005-06-02, 03:04:00,VALID,915.756,VALID,0,VALID,100,VALID,-0.101885,VALID,18.7549,VALID,111,VALID,0.503811,
2005-06-02, 03:05:00,VALID,915.74,VALID,0,VALID,100,VALID,-0.101885,VALID,18.7641,VALID,110,VALID,0.668786,
2005-06-02, 03:06:00,VALID,915.754,VALID,0,VALID,100,VALID,-0.101885,VALID,18.7742,VALID,105,VALID,0.700581,
2005-06-02, 03:07:00,VALID,915.738,VALID,0,VALID,100,VALID,-0.0509425,VALID,18.7865,VALID,109,VALID,0.557776,
2005-06-02, 03:08:00,VALID,915.759,VALID,0,VALID,100,VALID,-0.0169808,VALID,18.7924,VALID,118,VALID,0.314499,
2005-06-02, 03:09:00,VALID,915.749,VALID,0,VALID,100,VALID,0,VALID,18.8153,VALID,123,VALID,0.70206,
2005-06-02, 03:10:00,VALID,915.743,VALID,0,VALID,100,VALID,0,VALID,18.8279,VALID,95,VALID,0.579215,
2005-06-02, 03:11:00,VALID,915.741,VALID,0,VALID,100,VALID,0,VALID,18.8471,VALID,114,VALID,0.656072,
2005-06-02, 03:12:00,VALID,915.729,VALID,0,VALID,100,VALID,-0.0169808,VALID,18.8729,VALID,117,VALID,0.472656,
2005-06-02, 03:13:00,VALID,915.743,VALID,0,VALID,100,VALID,-0.0169808,VALID,18.8856,VALID,127,VALID,0.478981,
2005-06-02, 03:14:00,VALID,915.736,VALID,0,VALID,100,VALID,-0.0169808,VALID,18.8987,VALID,128,VALID,0.26617,
2005-06-02, 03:15:00,VALID,915.747,VALID,0,VALID,100,VALID,0,VALID,18.892,VALID,105,VALID,0.602983,
2005-06-02, 03:16:00,VALID,915.734,VALID,0,VALID,100,VALID,-0.0169808,VALID,18.899,VALID,111,VALID,0.533913,
2005-06-02, 03:17:00,VALID,915.729,VALID,0,VALID,100,VALID,-0.0339617,VALID,18.902,VALID,129,VALID,0.577943,
2005-06-02, 03:18:00,VALID,915.71,VALID,0,VALID,100,VALID,-0.0169808,VALID,18.9188,VALID,145,VALID,0.631624,
2005-06-02, 03:19:00,VALID,915.702,VALID,0,VALID,100,VALID,-0.0169808,VALID,18.9253,VALID,132,VALID,1.07459,
2005-06-02, 03:20:00,VALID,915.671,VALID,0,VALID,100,VALID,0,VALID,18.9278,VALID,133,VALID,0.759301,
2005-06-02, 03:21:00,VALID,915.662,VALID,0,VALID,100,VALID,-0.0169808,VALID,18.9412,VALID,133,VALID,0.851172,
2005-06-02, 03:22:00,VALID,915.641,VALID,0,VALID,100,VALID,-0.0339617,VALID,18.9407,VALID,130,VALID,0.537791,
2005-06-02, 03:23:00,VALID,915.628,VALID,0,VALID,100,VALID,0,VALID,18.9444,VALID,126,VALID,0.616477,
2005-06-02, 03:24:00,VALID,915.614,VALID,0,VALID,100,VALID,0,VALID,18.9375,VALID,113,VALID,0.77846,
2005-06-02, 03:25:00,VALID,915.633,VALID,0,VALID,100,VALID,0,VALID,18.9211,VALID,120,VALID,0.792411,
2005-06-02, 03:26:00,VALID,915.646,VALID,0,VALID,100,VALID,0,VALID,18.9114,VALID,113,VALID,0.597656,
2005-06-02, 03:27:00,VALID,915.664,VALID,0,VALID,100,VALID,-0.0169808,VALID,18.9186,VALID,132,VALID,0.999809,
2005-06-02, 03:28:00,VALID,915.664,VALID,0,VALID,100,VALID,-0.0339617,VALID,18.928,VALID,120,VALID,0.936198,
2005-06-02, 03:29:00,VALID,915.672,VALID,0,VALID,100,VALID,-0.0169808,VALID,18.928,VALID,129,VALID,0.842842,
2005-06-02, 03:30:00,VALID,915.675,VALID,0,VALID,100,VALID,-0.0169808,VALID,18.9213,VALID,107,VALID,0.540879,
2005-06-02, 03:31:00,VALID,915.66,VALID,0,VALID,100,VALID,0,VALID,18.9216,VALID,81,VALID,0.556076,
2005-06-02, 03:32:00,VALID,915.665,VALID,0,VALID,100,VALID,0,VALID,18.9022,VALID,81,VALID,0.758194,
2005-06-02, 03:33:00,VALID,915.647,VALID,0,VALID,100,VALID,0,VALID,18.8665,VALID,97,VALID,0.531068,
2005-06-02, 03:34:00,VALID,915.65,VALID,0,VALID,100,VALID,0.0169808,VALID,18.8379,VALID,99,VALID,0.694586,
2005-06-02, 03:35:00,VALID,915.648,VALID,0,VALID,100,VALID,0.0169808,VALID,18.8083,VALID,103,VALID,0.580171,
2005-06-02, 03:36:00,VALID,915.647,VALID,0,VALID,100,VALID,0,VALID,18.7857,VALID,103,VALID,0.652435,
2005-06-02, 03:37:00,VALID,915.635,VALID,0,VALID,100,VALID,0,VALID,18.7696,VALID,100,VALID,0.46766,
2005-06-02, 03:38:00,VALID,915.639,VALID,0,VALID,100,VALID,-0.0509425,VALID,18.7306,VALID,83,VALID,0.638951,
2005-06-02, 03:39:00,VALID,915.626,VALID,0,VALID,100,VALID,0,VALID,18.6983,VALID,73,VALID,0.622523,
2005-06-02, 03:40:00,VALID,915.613,VALID,0,VALID,100,VALID,0.0169808,VALID,18.6628,VALID,74,VALID,0.653582,
2005-06-02, 03:41:00,VALID,915.597,VALID,0,VALID,100,VALID,0.0169808,VALID,18.6437,VALID,75,VALID,0.5,
2005-06-02, 03:42:00,VALID,915.587,VALID,0,VALID,100,VALID,0,VALID,18.6082,VALID,81,VALID,0.730824,
2005-06-02, 03:43:00,VALID,915.59,VALID,0,VALID,100,VALID,0.0169808,VALID,18.5923,VALID,98,VALID,0.685243,